period_start,C,m1,H,J0,J1,J2,J3,J4,J5,JA,JB,JC,JD,JJ,JK,JN,#
2014-10-02 00:03:38,0.07,1.82,0.00,27.90,32.66,34.90,4.76,25.84,1026.39,2011.98,2769.68,2775.90,2993.73,349.83,345.20,38.16,0000 0000 0000 0000 000000
2014-10-02 00:08:39,0.08,1.83,0.00,27.87,32.63,34.92,4.78,25.78,1026.40,2011.99,2768.82,2775.14,2993.03,350.53,345.93,38.19,0000 0000 0000 0000 000000
2014-10-02 00:13:40,0.06,1.83,0.00,27.79,32.60,34.90,4.79,25.86,1026.40,2011.99,2767.94,2774.84,2992.41,349.76,345.21,38.22,0000 0000 0000 0000 000000
2014-10-02 00:18:41,0.07,1.83,0.00,27.76,32.56,34.93,4.75,25.83,1026.41,2012.00,2767.24,2774.20,2992.01,350.03,345.33,38.25,0000 0000 0000 0000 000000
2014-10-02 00:23:43,0.03,1.83,0.00,27.74,32.52,34.90,4.74,25.82,1026.40,2012.04,2766.70,2774.00,2991.88,350.04,345.54,38.28,0000 0000 0000 0000 000000
2014-10-02 00:28:44,0.17,1.83,0.00,27.67,32.49,34.82,4.71,25.87,1026.40,2012.46,2765.90,2773.76,2991.14,350.23,345.82,38.31,0000 0000 0000 0000 000000
2014-10-02 00:33:45,0.11,1.84,0.00,27.66,32.45,34.84,4.72,25.88,1026.39,2012.90,2765.06,2773.08,2990.90,350.09,345.62,38.34,0000 0000 0000 0000 000000
2014-10-02 00:38:47,0.07,1.84,0.00,27.60,32.41,34.82,4.74,25.86,1026.40,2012.98,2764.24,2772.96,2990.13,349.81,345.58,38.37,0000 0000 0000 0000 000000
2014-10-02 00:43:48,0.07,1.84,0.00,27.60,32.36,34.84,4.69,25.79,1026.41,2012.99,2763.59,2772.39,2989.97,349.59,345.36,38.40,0000 0000 0000 0000 000000
2014-10-02 00:48:49,0.06,1.85,0.00,27.61,32.33,34.70,4.73,25.86,1026.40,2013.02,2762.82,2772.01,2989.33,350.11,345.65,38.43,0000 0000 0000 0000 000000
2014-10-02 00:53:51,0.07,1.85,0.00,27.55,32.29,34.66,4.77,25.88,1026.39,2013.12,2762.01,2771.72,2988.98,349.41,345.19,38.45,0000 0000 0000 0000 000000
2014-10-02 00:58:52,0.16,1.85,0.00,27.56,32.25,34.53,4.69,25.86,1026.38,2013.52,2761.13,2771.04,2988.28,349.49,345.13,38.48,0000 0000 0000 0000 000000
2014-10-02 01:03:53,0.11,1.86,0.00,27.51,32.21,34.50,4.77,25.90,1026.38,2013.89,2760.39,2770.85,2987.99,350.12,345.89,38.51,0000 0000 0000 0000 000000
2014-10-02 01:08:54,0.10,1.86,0.00,27.51,32.18,34.57,4.76,25.70,1026.38,2013.98,2759.59,2770.09,2987.30,350.23,345.98,38.54,0000 0000 0000 0000 000000
2014-10-02 01:13:56,0.03,1.86,0.00,27.44,32.15,34.48,4.76,25.80,1026.38,2013.99,2758.89,2769.85,2986.97,350.18,346.08,38.57,0000 0000 0000 0000 000000
2014-10-02 01:18:57,0.08,1.86,0.00,27.40,32.11,34.44,4.71,25.84,1026.38,2013.99,2758.20,2769.29,2986.41,349.87,345.89,38.60,0000 0000 0000 0000 000000
2014-10-02 01:23:58,0.04,1.86,0.00,27.37,32.08,34.37,4.78,25.80,1026.38,2014.01,2757.42,2769.00,2986.00,350.10,346.06,38.63,0000 0000 0000 0000 000000
2014-10-02 01:29:00,0.09,1.87,0.00,27.35,32.04,34.30,4.81,25.81,1026.38,2014.10,2756.62,2768.76,2985.50,350.37,346.20,38.66,0000 0000 0000 0000 000000
2014-10-02 01:34:01,0.11,1.87,0.00,27.39,32.01,34.38,4.77,25.79,1026.38,2014.45,2755.89,2768.09,2985.01,350.43,346.19,38.69,0000 0000 0000 0000 000000
2014-10-02 01:39:03,0.13,1.87,0.00,27.42,31.97,34.48,4.77,25.84,1026.38,2014.84,2755.10,2767.97,2984.70,349.78,345.54,38.72,0000 0000 0000 0000 000000
2014-10-02 01:44:04,0.10,1.88,0.00,27.45,31.94,34.52,4.71,25.69,1026.38,2014.97,2754.42,2767.34,2984.03,349.56,345.37,38.75,0000 0000 0000 0000 000000
2014-10-02 01:49:06,0.03,1.88,0.00,27.44,31.90,34.44,4.74,25.77,1026.39,2014.99,2753.78,2767.01,2983.93,350.17,346.05,38.78,0000 0000 0000 0000 000000
2014-10-02 01:54:07,0.08,1.88,0.00,27.45,31.86,34.36,4.73,25.77,1026.42,2015.01,2753.02,2766.77,2983.14,349.48,345.21,38.81,0000 0000 0000 0000 000000
2014-10-02 01:59:08,0.08,1.88,0.00,27.41,31.82,34.29,4.78,25.81,1026.41,2015.10,2752.21,2766.09,2982.93,350.12,345.98,38.84,0000 0000 0000 0000 000000
2014-10-02 02:04:09,0.16,1.89,0.00,27.29,31.79,34.33,4.77,25.79,1026.40,2015.61,2751.64,2765.99,2982.23,349.78,345.74,38.87,0000 0000 0000 0000 000000
2014-10-02 02:09:11,0.08,1.89,0.00,27.24,31.75,34.23,4.71,25.73,1026.39,2015.89,2750.97,2765.42,2981.98,349.92,345.96,38.89,0000 0000 0000 0000 000000
2014-10-02 02:14:12,0.07,1.89,0.00,27.24,31.70,34.13,4.74,25.82,1026.38,2015.97,2750.19,2765.01,2981.47,349.93,346.00,38.92,0000 0000 0000 0000 000000
2014-10-02 02:19:13,0.03,1.89,0.00,27.25,31.66,34.07,4.79,25.83,1026.38,2015.99,2749.69,2764.97,2981.02,349.79,345.88,38.95,0000 0000 0000 0000 000000
2014-10-02 02:24:15,0.06,1.90,0.00,27.25,31.62,34.01,4.74,25.80,1026.38,2015.99,2749.01,2764.34,2980.91,349.89,345.99,38.98,0000 0000 0000 0000 000000
2014-10-02 02:29:16,0.06,1.90,0.00,27.25,31.58,33.97,4.68,25.89,1026.38,2016.01,2748.59,2764.01,2980.35,349.40,345.49,39.01,0000 0000 0000 0000 000000
2014-10-02 02:34:17,0.07,1.90,0.00,27.25,31.55,33.93,4.76,25.98,1026.38,2016.22,2747.91,2763.97,2980.01,349.86,345.84,39.04,0000 0000 0000 0000 000000
2014-10-02 02:39:19,0.15,1.90,0.00,27.25,31.51,33.89,4.78,25.87,1026.38,2016.69,2747.08,2763.54,2979.77,349.79,346.01,39.07,0000 0000 0000 0000 000000
2014-10-02 02:44:20,0.09,1.91,0.00,27.25,31.48,33.85,4.83,25.93,1026.37,2016.96,2746.49,2763.02,2979.06,350.04,346.22,39.10,0000 0000 0000 0000 000000
2014-10-02 02:49:21,0.01,1.91,0.00,27.26,31.45,33.83,4.75,25.87,1026.38,2016.98,2745.95,2762.94,2978.98,350.53,346.58,39.13,0000 0000 0000 0000 000000
2014-10-02 02:54:22,0.10,1.91,0.00,27.26,31.42,33.81,4.76,25.88,1026.38,2016.99,2745.10,2762.28,2978.28,349.80,345.76,39.16,0000 0000 0000 0000 000000
2014-10-02 02:59:23,0.03,1.91,0.00,27.25,31.40,33.78,4.68,25.82,1026.38,2016.99,2744.55,2762.01,2978.00,349.59,345.56,39.19,0000 0000 0000 0000 000000
2014-10-02 03:04:25,0.05,1.91,0.00,27.25,31.37,33.74,4.68,25.81,1026.38,2017.00,2743.81,2761.81,2977.60,349.59,345.37,39.22,0000 0000 0000 0000 000000
2014-10-02 03:09:26,0.08,1.92,0.00,27.25,31.36,33.74,4.83,25.82,1026.36,2017.09,2743.03,2761.11,2977.01,350.27,346.39,39.25,0000 0000 0000 0000 000000
2014-10-02 03:14:28,0.09,1.92,0.00,27.25,31.34,33.71,4.79,26.01,1026.36,2017.45,2742.50,2761.00,2976.96,350.46,346.49,39.28,0000 0000 0000 0000 000000
2014-10-02 03:19:29,0.10,1.92,0.00,27.25,31.31,33.69,4.71,25.82,1026.37,2017.80,2742.00,2760.89,2976.37,350.20,346.18,39.31,0000 0000 0000 0000 000000
2014-10-02 03:24:30,0.08,1.92,0.00,27.25,31.30,33.67,4.69,25.89,1026.38,2017.86,2741.28,2760.13,2976.00,349.97,345.99,39.34,0000 0000 0000 0000 000000
2014-10-02 03:29:31,0.07,1.93,0.00,27.25,31.28,33.67,4.73,25.88,1026.38,2017.93,2740.59,2759.98,2975.49,350.11,346.22,39.36,0000 0000 0000 0000 000000
2014-10-02 03:34:33,0.06,1.93,0.00,27.25,31.26,33.66,4.72,25.93,1026.38,2017.96,2739.96,2759.48,2975.01,349.79,346.07,39.39,0000 0000 0000 0000 000000
2014-10-02 03:39:34,0.06,1.93,0.00,27.26,31.25,33.66,4.73,25.90,1026.38,2017.99,2739.15,2759.03,2974.63,350.07,346.13,39.42,0000 0000 0000 0000 000000
2014-10-02 03:44:35,0.03,1.93,0.00,27.27,31.23,33.62,4.73,25.79,1026.37,2017.99,2738.76,2758.95,2974.04,349.99,346.16,39.45,0000 0000 0000 0000 000000
2014-10-02 03:49:36,0.07,1.93,0.00,27.28,31.22,33.62,4.70,25.99,1026.37,2017.99,2738.04,2758.20,2973.86,349.90,346.02,39.48,0000 0000 0000 0000 000000
2014-10-02 03:54:37,0.05,1.94,0.00,27.30,31.20,33.61,4.78,25.96,1026.35,2018.00,2737.31,2757.99,2973.11,350.03,345.94,39.51,0000 0000 0000 0000 000000
2014-10-02 03:59:39,0.03,1.94,0.00,27.31,31.20,33.60,4.72,25.96,1026.36,2018.00,2736.93,2757.74,2972.99,349.38,345.51,39.54,0000 0000 0000 0000 000000
2014-10-02 04:04:40,0.07,1.94,0.00,27.30,31.18,33.59,4.79,25.82,1026.35,2018.00,2736.24,2757.08,2972.69,349.62,345.56,39.57,0000 0000 0000 0000 000000
2014-10-02 04:09:41,0.04,1.94,0.00,27.32,31.17,33.58,4.72,25.82,1026.36,2018.00,2735.74,2756.97,2972.10,350.06,345.90,39.60,0000 0000 0000 0000 000000
2014-10-02 04:14:43,0.07,1.94,0.00,27.30,31.17,33.57,4.84,26.01,1026.37,2018.01,2734.97,2756.43,2971.72,350.52,346.51,39.63,0000 0000 0000 0000 000000
2014-10-02 04:19:44,0.06,1.94,0.00,27.31,31.16,33.58,4.75,25.98,1026.38,2018.04,2734.41,2756.02,2971.11,350.26,346.24,39.66,0000 0000 0000 0000 000000
2014-10-02 04:24:45,0.01,1.95,0.00,27.31,31.15,33.58,4.72,25.89,1026.38,2018.06,2733.96,2755.99,2970.99,350.22,346.16,39.69,0000 0000 0000 0000 000000
2014-10-02 04:29:47,0.10,1.95,0.00,27.30,31.15,33.58,4.74,25.97,1026.38,2018.17,2733.16,2755.61,2970.50,350.01,346.06,39.72,0000 0000 0000 0000 000000
2014-10-02 04:34:48,0.05,1.95,0.00,27.30,31.15,33.57,4.79,25.99,1026.38,2018.12,2732.39,2755.03,2970.01,350.20,346.13,39.74,0000 0000 0000 0000 000000
2014-10-02 04:39:49,0.07,1.95,0.00,27.29,31.13,33.57,4.73,25.83,1026.38,2018.17,2731.87,2754.77,2969.46,350.21,346.31,39.77,0000 0000 0000 0000 000000
2014-10-02 04:44:51,0.09,1.95,0.00,27.27,31.12,33.57,4.77,25.91,1026.38,2018.29,2731.10,2754.08,2969.01,349.72,345.67,39.80,0000 0000 0000 0000 000000
2014-10-02 04:49:52,0.08,1.96,0.00,27.28,31.12,33.57,4.77,25.87,1026.38,2018.54,2730.65,2753.99,2968.75,350.26,346.40,39.83,0000 0000 0000 0000 000000
2014-10-02 04:54:53,0.06,1.96,0.00,27.27,31.12,33.58,4.81,25.95,1026.38,2018.50,2729.87,2753.33,2968.04,350.15,346.26,39.86,0000 0000 0000 0000 000000
2014-10-02 04:59:54,0.09,1.96,0.00,27.27,31.11,33.56,4.75,25.90,1026.38,2018.63,2729.05,2753.00,2967.67,349.97,345.87,39.89,0000 0000 0000 0000 000000
2014-10-02 05:04:56,0.08,1.96,0.00,27.25,31.10,33.56,4.77,25.87,1026.38,2018.71,2728.48,2752.67,2967.08,349.83,345.96,39.92,0000 0000 0000 0000 000000
2014-10-02 05:09:57,0.03,1.97,0.00,27.25,31.10,33.55,4.72,25.99,1026.38,2018.69,2727.79,2752.04,2966.62,349.59,345.52,39.95,0000 0000 0000 0000 000000
2014-10-02 05:14:58,0.04,1.97,0.00,27.25,31.09,33.55,4.81,26.11,1026.38,2018.50,2727.00,2751.83,2966.01,350.22,346.11,39.98,0000 0000 0000 0000 000000
2014-10-02 05:20:00,0.14,1.97,0.00,27.22,31.08,33.54,4.70,25.98,1026.38,2018.79,2726.25,2751.16,2965.63,349.96,345.84,40.01,0000 0000 0000 0000 000000
2014-10-02 05:25:01,0.04,1.97,0.00,27.22,31.07,33.55,4.75,25.95,1026.39,2018.92,2725.79,2751.00,2965.06,350.21,346.25,40.04,0000 0000 0000 0000 000000
2014-10-02 05:30:02,0.04,1.97,0.00,27.21,31.07,33.52,4.79,25.98,1026.39,2018.97,2725.05,2750.89,2964.93,349.63,345.76,40.07,0000 0000 0000 0000 000000
2014-10-02 05:35:04,0.10,1.98,0.00,27.20,31.05,33.52,4.74,25.94,1026.39,2018.96,2724.35,2750.14,2964.18,350.22,346.42,40.10,0000 0000 0000 0000 000000
2014-10-02 05:40:05,0.01,1.98,0.00,27.21,31.05,33.50,4.77,25.94,1026.41,2018.97,2723.87,2749.98,2963.97,350.42,346.43,40.13,0000 0000 0000 0000 000000
2014-10-02 05:45:07,0.09,1.98,0.00,27.20,31.05,33.50,4.76,25.96,1026.40,2018.97,2723.11,2749.54,2963.36,349.97,346.16,40.16,0000 0000 0000 0000 000000
2014-10-02 05:50:08,0.06,1.98,0.00,27.20,31.03,33.49,4.73,25.91,1026.41,2018.99,2722.38,2749.00,2962.87,349.76,346.05,40.18,0000 0000 0000 0000 000000
2014-10-02 05:55:09,0.19,1.99,0.00,27.21,31.02,33.48,4.70,25.92,1026.41,2018.99,2720.37,2747.96,2961.58,349.89,346.03,40.21,0000 0000 0000 0000 000000
2014-10-02 06:00:10,0.18,1.99,0.00,27.20,31.02,33.47,4.78,25.96,1026.41,2018.99,2718.44,2746.69,2960.20,350.23,346.48,40.24,0000 0000 0000 0000 000000
2014-10-02 06:05:12,0.15,2.00,0.00,27.21,31.01,33.45,4.70,25.89,1026.40,2018.99,2716.83,2745.62,2959.03,349.41,345.46,40.27,0000 0000 0000 0000 000000
2014-10-02 06:10:13,0.14,2.00,0.00,27.20,31.00,33.43,4.71,25.97,1026.41,2018.99,2715.39,2744.63,2957.92,350.21,346.25,40.30,0000 0000 0000 0000 000000
2014-10-02 06:15:14,0.19,2.01,0.00,27.21,31.00,33.44,4.69,25.96,1026.42,2019.01,2713.66,2743.44,2956.59,349.73,345.98,40.33,0000 0000 0000 0000 000000
2014-10-02 06:20:16,0.16,2.01,0.00,27.22,31.00,33.41,4.78,25.99,1026.40,2019.01,2711.97,2742.16,2955.21,349.83,345.86,40.36,0000 0000 0000 0000 000000
2014-10-02 06:25:17,0.18,2.02,0.00,27.22,30.98,33.41,4.73,25.89,1026.41,2019.00,2710.16,2740.83,2953.79,349.58,345.68,40.39,0000 0000 0000 0000 000000
2014-10-02 06:30:18,0.15,2.02,0.00,27.20,30.97,33.40,4.74,25.95,1026.43,2019.04,2708.69,2739.89,2952.67,350.24,346.49,40.42,0000 0000 0000 0000 000000
2014-10-02 06:35:19,0.14,2.02,0.00,27.22,30.97,33.40,4.74,25.87,1026.44,2019.06,2707.36,2738.90,2951.61,349.66,345.91,40.45,0000 0000 0000 0000 000000
2014-10-02 06:40:20,0.15,2.03,0.00,27.22,30.96,33.40,4.72,25.90,1026.43,2019.03,2705.96,2737.77,2950.46,350.15,346.25,40.48,0000 0000 0000 0000 000000
2014-10-02 06:45:22,0.18,2.03,0.00,27.20,30.95,33.40,4.75,25.98,1026.47,2019.05,2704.31,2736.51,2949.08,350.03,346.24,40.51,0000 0000 0000 0000 000000
2014-10-02 06:50:23,0.20,2.04,0.00,27.21,30.95,33.39,4.75,25.98,1026.59,2019.09,2702.45,2735.20,2947.58,349.89,346.02,40.54,0000 0000 0000 0000 000000
2014-10-02 06:55:24,0.20,2.05,0.00,27.21,30.95,33.37,4.76,25.85,1026.75,2019.11,2700.57,2733.80,2946.14,350.24,346.50,40.57,0000 0000 0000 0000 000000
2014-10-02 07:00:25,0.24,2.05,0.00,27.20,30.93,33.38,4.84,25.95,1026.85,2019.29,2698.78,2732.52,2944.73,349.66,346.04,40.59,0000 0000 0000 0000 000000
2014-10-02 07:05:27,0.15,2.06,0.00,27.21,30.92,33.37,4.76,25.93,1026.85,2019.43,2697.26,2731.42,2943.57,349.82,345.98,40.62,0000 0000 0000 0000 000000
2014-10-02 07:10:28,0.19,2.06,0.00,27.21,30.92,33.36,4.80,25.87,1026.85,2019.62,2695.69,2730.32,2942.32,350.08,346.44,40.65,0000 0000 0000 0000 000000
2014-10-02 07:15:29,0.13,2.07,0.00,27.20,30.92,33.35,4.75,25.97,1026.87,2019.62,2694.16,2729.15,2941.12,350.16,346.36,40.68,0000 0000 0000 0000 000000
2014-10-02 07:20:30,0.17,2.07,0.00,27.21,30.90,33.36,4.75,25.82,1026.87,2019.84,2692.84,2728.28,2940.08,350.39,346.49,40.71,0000 0000 0000 0000 000000
2014-10-02 07:25:31,0.16,2.08,0.00,27.21,30.90,33.34,4.78,25.87,1026.86,2019.88,2691.43,2727.22,2938.88,349.80,345.91,40.74,0000 0000 0000 0000 000000
2014-10-02 07:30:33,0.17,2.08,0.00,27.20,30.90,33.35,4.82,25.94,1026.86,2019.90,2689.78,2726.08,2937.67,350.12,346.33,40.77,0000 0000 0000 0000 000000
2014-10-02 07:35:34,0.14,2.09,0.00,27.20,30.90,33.34,4.78,25.99,1026.87,2019.91,2688.33,2725.02,2936.47,350.43,346.77,40.80,0000 0000 0000 0000 000000
2014-10-02 07:40:35,0.14,2.09,0.00,27.19,30.89,33.34,4.68,25.93,1026.87,2019.96,2686.96,2724.08,2935.47,349.42,346.02,40.83,0000 0000 0000 0000 000000
2014-10-02 07:45:36,0.12,2.10,0.00,27.18,30.87,33.31,4.72,25.93,1026.87,2019.94,2685.77,2723.19,2934.49,350.51,346.81,40.86,0000 0000 0000 0000 000000
2014-10-02 07:50:37,0.12,2.10,0.00,27.19,30.87,33.30,4.80,25.91,1026.87,2019.97,2684.83,2722.30,2933.56,350.74,347.06,40.89,0000 0000 0000 0000 000000
2014-10-02 07:55:38,0.08,2.10,0.00,27.17,30.87,33.31,4.73,25.82,1026.87,2019.98,2684.03,2721.56,2932.93,349.99,346.28,40.92,0000 0000 0000 0000 000000
2014-10-02 08:00:40,0.09,2.10,0.00,27.17,30.87,33.23,4.77,25.93,1026.88,2019.97,2683.20,2720.81,2932.06,350.11,346.41,40.95,0000 0000 0000 0000 000000
2014-10-02 08:05:42,0.19,2.11,0.00,27.18,30.85,33.15,4.72,25.97,1026.88,2019.93,2681.56,2719.57,2930.86,349.58,345.92,40.98,0000 0000 0000 0000 000000
2014-10-02 08:10:43,0.39,2.12,0.00,27.16,30.85,33.16,4.78,25.97,1026.88,2019.84,2678.07,2717.03,2928.23,350.26,346.49,41.00,0000 0000 0000 0000 000000
2014-10-02 08:15:44,0.54,2.13,0.00,27.15,30.85,33.19,4.74,25.88,1026.89,2019.75,2672.81,2713.43,2924.42,349.99,346.13,41.03,0000 0000 0000 0000 000000
2014-10-02 08:20:45,0.39,2.15,0.00,27.15,30.85,33.21,4.68,25.84,1026.89,2019.76,2668.48,2710.37,2921.27,349.98,346.24,41.06,0000 0000 0000 0000 000000
2014-10-02 08:25:46,0.34,2.16,0.00,27.12,30.83,33.24,4.66,25.90,1026.90,2019.87,2665.14,2708.15,2918.87,349.32,345.54,41.09,0000 0000 0000 0000 000000
2014-10-02 08:30:48,0.27,2.17,0.00,27.10,30.82,33.23,4.70,25.93,1026.93,2019.95,2662.29,2706.28,2916.84,349.68,346.08,41.12,0000 0000 0000 0000 000000
2014-10-02 08:35:49,0.22,2.17,0.00,27.09,30.82,33.27,4.76,26.00,1026.90,2019.94,2660.05,2704.71,2915.22,350.27,346.48,41.15,0000 0000 0000 0000 000000
2014-10-02 08:40:50,0.18,2.18,0.00,27.07,30.81,33.23,4.72,25.83,1026.98,2019.92,2658.06,2703.38,2913.73,350.57,347.00,41.18,0000 0000 0000 0000 000000
2014-10-02 08:45:51,0.16,2.18,0.00,27.04,30.80,33.26,4.75,25.88,1026.97,2019.93,2656.44,2702.21,2912.51,349.77,346.26,41.21,0000 0000 0000 0000 000000
2014-10-02 08:50:53,0.13,2.19,0.00,27.02,30.80,33.27,4.78,25.97,1027.05,2019.94,2655.10,2701.21,2911.56,350.17,346.69,41.24,0000 0000 0000 0000 000000
2014-10-02 08:55:54,0.15,2.19,0.00,27.00,30.77,33.24,4.81,25.97,1027.27,2019.96,2653.79,2700.38,2910.56,350.26,346.76,41.27,0000 0000 0000 0000 000000
2014-10-02 09:00:55,0.15,2.20,0.00,26.96,30.77,33.25,4.76,25.97,1027.35,2019.98,2652.25,2699.28,2909.41,349.80,346.78,41.30,0000 0000 0000 0000 000000
2014-10-02 09:05:57,0.15,2.20,0.00,26.95,30.75,33.24,4.79,25.88,1027.36,2019.99,2650.70,2698.25,2908.34,349.92,346.67,41.33,0000 0000 0000 0000 000000
2014-10-02 09:10:58,0.11,2.21,0.00,26.93,30.75,33.22,4.72,25.88,1027.36,2019.99,2649.51,2697.57,2907.55,350.52,347.29,41.36,0000 0000 0000 0000 000000
2014-10-02 09:15:59,0.10,2.21,0.00,26.90,30.72,33.24,4.70,25.87,1027.36,2019.97,2648.26,2696.80,2906.68,350.12,346.96,41.39,0000 0000 0000 0000 000000
2014-10-02 09:21:01,0.08,2.21,0.00,26.88,30.71,33.23,4.75,25.94,1027.36,2019.99,2647.53,2696.08,2906.03,350.23,347.05,41.41,0000 0000 0000 0000 000000
2014-10-02 09:26:02,0.11,2.21,0.00,26.87,30.70,33.22,4.78,25.98,1027.36,2019.99,2646.65,2695.51,2905.39,350.00,346.93,41.44,0000 0000 0000 0000 000000
2014-10-02 09:31:03,0.07,2.22,0.00,26.83,30.68,33.21,4.73,25.87,1027.36,2019.99,2645.55,2694.94,2904.77,350.20,347.31,41.47,0000 0000 0000 0000 000000
2014-10-02 09:36:04,0.10,2.22,0.00,26.80,30.66,33.20,4.73,25.88,1027.36,2019.99,2644.67,2694.17,2904.04,349.84,346.97,41.50,0000 0000 0000 0000 000000
2014-10-02 09:41:06,0.11,2.22,0.00,26.79,30.65,33.19,4.77,25.90,1027.36,2019.99,2643.69,2693.59,2903.34,349.97,346.89,41.53,0000 0000 0000 0000 000000
2014-10-02 09:46:07,0.09,2.23,0.00,26.75,30.62,33.17,4.82,25.96,1027.36,2020.00,2642.58,2692.95,2902.57,350.02,346.97,41.56,0000 0000 0000 0000 000000
2014-10-02 09:51:08,0.09,2.23,0.00,26.71,30.61,33.16,4.69,25.92,1027.36,2020.03,2641.66,2692.22,2901.95,349.41,346.69,41.59,0000 0000 0000 0000 000000
2014-10-02 09:56:09,0.09,2.23,0.00,26.70,30.59,33.14,4.79,25.94,1027.36,2020.03,2640.68,2691.72,2901.15,349.81,346.69,41.62,0000 0000 0000 0000 000000
2014-10-02 10:01:11,0.10,2.23,0.00,26.68,30.57,33.12,4.79,25.84,1027.36,2020.06,2639.60,2691.01,2900.57,350.36,347.50,41.65,0000 0000 0000 0000 000000
2014-10-02 10:06:12,0.17,2.24,0.00,26.63,30.55,33.10,4.73,25.93,1027.36,2020.17,2638.19,2690.16,2899.50,349.65,346.82,41.68,0000 0000 0000 0000 000000
2014-10-02 10:11:13,0.20,2.25,0.00,26.59,30.52,33.10,4.76,26.02,1027.36,2020.47,2636.44,2689.10,2898.51,349.96,347.12,41.71,0000 0000 0000 0000 000000
2014-10-02 10:16:15,0.23,2.25,0.00,26.57,30.50,33.07,4.76,26.01,1027.36,2020.64,2634.49,2688.03,2897.12,350.27,347.37,41.74,0000 0000 0000 0000 000000
2014-10-02 10:21:16,0.14,2.26,0.00,26.56,30.48,33.05,4.79,26.02,1027.36,2020.95,2633.25,2687.11,2896.30,349.69,346.88,41.77,0000 0000 0000 0000 000000
2014-10-02 10:26:17,0.15,2.26,0.00,26.52,30.46,33.02,4.72,26.01,1027.36,2020.96,2631.79,2686.28,2895.27,349.50,346.85,41.80,0000 0000 0000 0000 000000
2014-10-02 10:31:19,0.13,2.27,0.00,26.47,30.43,32.99,4.76,25.94,1027.35,2020.99,2630.53,2685.38,2894.35,349.86,347.18,41.82,0000 0000 0000 0000 000000
2014-10-02 10:36:20,0.10,2.27,0.00,26.44,30.41,32.98,4.75,25.99,1027.34,2020.99,2629.36,2684.75,2893.55,349.96,347.39,41.85,0000 0000 0000 0000 000000
2014-10-02 10:41:22,0.07,2.27,0.00,26.42,30.39,32.96,4.79,25.82,1027.35,2020.99,2628.47,2684.03,2893.00,350.49,347.84,41.88,0000 0000 0000 0000 000000
2014-10-02 10:46:23,0.11,2.27,0.00,26.40,30.36,32.91,4.73,25.96,1027.33,2020.99,2627.54,2683.53,2892.31,349.77,347.22,41.91,0000 0000 0000 0000 000000
2014-10-02 10:51:25,0.07,2.28,0.00,26.38,30.33,32.88,4.79,25.92,1027.34,2021.01,2626.54,2683.00,2891.80,349.84,347.10,41.94,0000 0000 0000 0000 000000
2014-10-02 10:56:26,0.12,2.28,0.00,26.33,30.31,32.86,4.83,25.99,1027.35,2021.15,2625.68,2682.57,2891.07,350.07,347.51,41.97,0000 0000 0000 0000 000000
2014-10-02 11:01:27,0.08,0.61,0.00,26.28,30.29,32.85,4.22,23.32,1027.36,2023.26,3299.89,3159.40,3426.03,308.45,305.15,0.00,0000 0000 0000 0000 000000
2014-10-02 11:06:28,0.08,0.00,0.00,26.25,30.26,32.83,4.73,27.11,1027.33,2023.78,3502.12,3303.92,3587.78,349.95,347.38,0.03,0000 0000 0000 0000 000000
2014-10-02 11:11:30,0.08,0.00,0.00,26.23,30.23,32.79,4.81,27.05,1027.25,2023.89,3500.74,3303.13,3586.74,349.66,347.28,0.06,0000 0000 0000 0000 000000
2014-10-02 11:16:31,0.08,0.00,0.00,26.21,30.20,32.77,4.76,26.86,1027.16,2023.97,3499.55,3302.81,3585.94,350.12,347.65,0.08,0000 0000 0000 0000 000000
2014-10-02 11:21:32,0.08,0.00,0.00,26.17,30.17,32.74,4.76,26.92,1027.11,2023.98,3498.52,3302.08,3585.11,349.61,347.17,0.11,0000 0000 0000 0000 000000
2014-10-02 11:26:33,0.06,0.01,0.00,26.14,30.14,32.71,4.75,26.80,1027.16,2023.99,3497.60,3301.85,3584.54,349.74,347.09,0.14,0000 0000 0000 0000 000000
2014-10-02 11:31:35,0.07,0.01,0.00,26.11,30.11,32.69,4.78,26.82,1027.23,2023.99,3496.51,3301.08,3583.93,350.14,347.80,0.17,0000 0000 0000 0000 000000
2014-10-02 11:36:36,0.06,0.01,0.00,26.09,30.09,32.64,4.87,26.85,1027.28,2023.99,3495.55,3300.85,3583.15,350.57,348.21,0.20,0000 0000 0000 0000 000000
2014-10-02 11:41:37,0.05,0.01,0.00,26.05,30.06,32.62,4.72,26.77,1027.32,2024.01,3494.69,3300.13,3582.98,349.34,346.99,0.23,0000 0000 0000 0000 000000
2014-10-02 11:46:38,0.07,0.01,0.00,26.01,30.02,32.60,4.77,26.73,1027.30,2024.16,3493.98,3300.00,3582.31,350.07,348.16,0.26,0000 0000 0000 0000 000000
2014-10-02 11:51:40,0.08,0.02,0.00,25.99,29.99,32.54,4.78,26.77,1027.33,2024.50,3493.17,3299.88,3582.00,349.81,347.76,0.29,0000 0000 0000 0000 000000
2014-10-02 11:56:41,0.12,0.02,0.00,25.96,29.96,32.51,4.75,26.73,1027.32,2024.85,3492.48,3299.11,3581.49,350.19,347.91,0.32,0000 0000 0000 0000 000000
2014-10-02 12:01:42,0.02,0.02,0.00,25.92,29.93,32.50,4.79,26.81,1027.23,2024.97,3491.87,3298.99,3581.00,350.05,347.98,0.35,0000 0000 0000 0000 000000
2014-10-02 12:06:43,0.05,0.02,0.00,25.89,29.90,32.45,4.72,26.77,1027.18,2024.99,3491.05,3298.77,3580.64,349.76,347.73,0.38,0000 0000 0000 0000 000000
2014-10-02 12:11:44,0.05,0.02,0.00,25.86,29.87,32.43,4.80,26.81,1027.01,2024.99,3490.33,3298.13,3580.06,350.62,348.46,0.41,0000 0000 0000 0000 000000
2014-10-02 12:16:45,0.02,0.03,0.00,25.82,29.84,32.40,4.74,26.82,1026.99,2025.00,3489.57,3298.00,3579.95,349.93,347.85,0.44,0000 0000 0000 0000 000000
2014-10-02 12:21:47,0.05,0.03,0.00,25.79,29.81,32.36,4.81,26.79,1026.93,2025.03,3489.00,3297.78,3579.33,349.82,347.69,0.47,0000 0000 0000 0000 000000
2014-10-02 12:26:48,0.07,0.03,0.00,25.76,29.77,32.34,4.78,26.76,1026.90,2025.14,3488.30,3297.18,3579.00,350.08,348.01,0.49,0000 0000 0000 0000 000000
2014-10-02 12:31:50,0.12,0.03,0.00,25.72,29.75,32.31,4.82,26.78,1026.89,2025.51,3487.74,3297.00,3578.79,349.89,347.90,0.52,0000 0000 0000 0000 000000
2014-10-02 12:36:51,0.05,0.03,0.00,25.69,29.72,32.26,4.72,26.68,1026.88,2025.90,3487.03,3296.97,3578.11,349.90,347.89,0.55,0000 0000 0000 0000 000000
2014-10-02 12:41:52,0.06,0.04,0.00,25.65,29.69,32.23,4.84,26.69,1026.87,2025.98,3486.22,3296.51,3578.00,350.88,348.96,0.58,0000 0000 0000 0000 000000
2014-10-02 12:46:53,0.03,0.04,0.00,25.61,29.66,32.19,4.74,26.69,1026.89,2025.99,3485.81,3296.03,3577.52,348.95,347.21,0.61,0000 0000 0000 0000 000000
2014-10-02 12:51:54,0.02,0.04,0.00,25.58,29.62,32.16,4.80,26.68,1026.89,2025.99,3485.06,3296.00,3577.05,350.63,348.84,0.64,0000 0000 0000 0000 000000
2014-10-02 12:56:56,0.02,0.04,0.00,25.54,29.59,32.12,4.83,26.76,1026.88,2025.99,3484.69,3295.98,3577.00,350.20,348.29,0.67,0000 0000 0000 0000 000000
2014-10-02 13:01:57,0.04,0.04,0.00,25.50,29.56,32.10,4.80,26.73,1026.87,2026.04,3484.02,3295.71,3576.89,349.86,348.19,0.70,0000 0000 0000 0000 000000